TimeCDT,TemperatureF,Dew PointF,Humidity,Sea Level PressureIn,VisibilityMPH,Wind Direction,Wind SpeedMPH,Gust SpeedMPH,PrecipitationIn,Events,Conditions,WindDirDegrees,DateUTC
12:15 AM,67.1,64.0,90,30.02,10.0,Calm,Calm,-,N/A,,Clear,0,2013-09-12 05:15:00
12:35 AM,67.6,63.9,88,30.02,10.0,WNW,3.5,-,N/A,,Clear,300,2013-09-12 05:35:00
12:55 AM,66.2,63.3,90,30.02,10.0,Calm,Calm,-,N/A,,Clear,0,2013-09-12 05:55:00
1:15 AM,64.4,62.6,94,30.01,10.0,Calm,Calm,-,N/A,,Clear,0,2013-09-12 06:15:00
1:35 AM,63.7,61.7,93,30.01,10.0,Calm,Calm,-,N/A,,Clear,0,2013-09-12 06:35:00
1:55 AM,61.0,59.5,95,30.01,0.5,Calm,Calm,-,N/A,,Unknown,0,2013-09-12 06:55:00
2:15 AM,60.3,58.8,95,30.00,2.0,Calm,Calm,-,N/A,,Clear,0,2013-09-12 07:15:00
2:35 AM,59.7,58.3,95,30.01,1.8,Calm,Calm,-,N/A,,Unknown,0,2013-09-12 07:35:00
2:55 AM,60.4,59.2,96,30.01,0.5,Calm,Calm,-,N/A,,Unknown,0,2013-09-12 07:55:00
3:15 AM,59.7,58.5,96,30.00,0.5,Calm,Calm,-,N/A,,Unknown,0,2013-09-12 08:15:00
3:35 AM,58.3,57.0,96,30.01,7.0,Calm,Calm,-,N/A,,Clear,0,2013-09-12 08:35:00
3:55 AM,58.5,57.4,96,30.00,7.0,Calm,Calm,-,N/A,,Clear,0,2013-09-12 08:55:00
4:15 AM,59.9,58.8,96,30.00,0.2,Calm,Calm,-,N/A,,Unknown,0,2013-09-12 09:15:00
4:35 AM,58.6,57.6,96,30.00,0.8,Calm,Calm,-,N/A,,Unknown,0,2013-09-12 09:35:00
4:55 AM,58.5,57.4,96,30.00,0.8,Calm,Calm,-,N/A,,Mostly Cloudy,0,2013-09-12 09:55:00
5:15 AM,57.9,56.8,96,30.01,1.5,Calm,Calm,-,N/A,,Unknown,0,2013-09-12 10:15:00
5:35 AM,58.6,57.7,97,30.01,10.0,Calm,Calm,-,N/A,,Clear,0,2013-09-12 10:35:00
5:55 AM,57.4,56.3,96,30.00,10.0,Calm,Calm,-,N/A,,Clear,0,2013-09-12 10:55:00
6:15 AM,59.0,58.1,97,30.00,10.0,West,4.6,-,N/A,,Clear,280,2013-09-12 11:15:00
6:35 AM,59.2,58.1,96,30.01,10.0,WNW,6.9,-,N/A,,Clear,290,2013-09-12 11:35:00
6:55 AM,60.3,59.0,96,30.02,10.0,WNW,8.1,-,N/A,,Clear,290,2013-09-12 11:55:00
7:15 AM,60.8,59.0,94,30.02,10.0,WNW,9.2,-,N/A,,Clear,290,2013-09-12 12:15:00
7:35 AM,62.1,59.0,90,30.03,10.0,WNW,9.2,-,N/A,,Clear,290,2013-09-12 12:35:00
7:55 AM,63.0,58.6,86,30.02,10.0,WNW,9.2,-,N/A,,Clear,300,2013-09-12 12:55:00
8:15 AM,63.9,58.1,81,30.02,10.0,NW,11.5,-,N/A,,Clear,310,2013-09-12 13:15:00
8:35 AM,64.4,56.7,76,30.03,10.0,NW,9.2,18.4,N/A,,Clear,320,2013-09-12 13:35:00
8:55 AM,64.9,55.9,73,30.03,10.0,NW,8.1,-,N/A,,Clear,320,2013-09-12 13:55:00
9:15 AM,66.2,55.9,69,30.05,10.0,NW,11.5,-,N/A,,Clear,310,2013-09-12 14:15:00
9:35 AM,67.1,55.6,66,30.04,10.0,NW,13.8,18.4,N/A,,Clear,310,2013-09-12 14:35:00
9:55 AM,67.6,53.6,61,30.04,10.0,NW,11.5,-,N/A,,Clear,320,2013-09-12 14:55:00
10:15 AM,68.5,54.0,60,30.04,10.0,NNW,12.7,-,N/A,,Clear,330,2013-09-12 15:15:00
10:35 AM,69.8,53.2,56,30.04,10.0,North,13.8,19.6,N/A,,Clear,350,2013-09-12 15:35:00
10:55 AM,70.2,52.2,53,30.05,10.0,NNW,12.7,-,N/A,,Clear,340,2013-09-12 15:55:00
11:15 AM,70.9,51.8,51,30.06,10.0,NNW,13.8,21.9,N/A,,Clear,330,2013-09-12 16:15:00
11:35 AM,71.2,52.3,51,30.07,10.0,NNW,16.1,20.7,N/A,,Clear,340,2013-09-12 16:35:00
11:55 AM,72.5,52.0,48,30.07,10.0,North,16.1,23.0,N/A,,Clear,350,2013-09-12 16:55:00
12:15 PM,73.2,51.8,47,30.06,10.0,North,13.8,18.4,N/A,,Scattered Clouds,350,2013-09-12 17:15:00
12:35 PM,72.3,51.3,47,30.06,10.0,North,15.0,23.0,N/A,,Mostly Cloudy,350,2013-09-12 17:35:00
12:55 PM,73.4,50.2,44,30.06,10.0,North,8.1,19.6,N/A,,Mostly Cloudy,350,2013-09-12 17:55:00
1:15 PM,74.7,48.2,39,30.06,10.0,NNW,15.0,18.4,N/A,,Mostly Cloudy,330,2013-09-12 18:15:00
1:35 PM,73.9,49.3,42,30.07,10.0,North,15.0,20.7,N/A,,Mostly Cloudy,360,2013-09-12 18:35:00
1:55 PM,74.3,49.5,41,30.06,10.0,NNW,13.8,17.3,N/A,,Scattered Clouds,330,2013-09-12 18:55:00
2:15 PM,73.6,48.0,40,30.06,10.0,NNW,10.4,16.1,N/A,,Scattered Clouds,340,2013-09-12 19:15:00
2:35 PM,74.5,48.0,39,30.06,10.0,NNW,10.4,19.6,N/A,,Mostly Cloudy,340,2013-09-12 19:35:00
2:55 PM,74.7,47.5,38,30.05,10.0,NNW,16.1,23.0,N/A,,Mostly Cloudy,330,2013-09-12 19:55:00
3:15 PM,73.8,46.6,38,30.06,10.0,NW,12.7,21.9,N/A,,Scattered Clouds,320,2013-09-12 20:15:00
3:35 PM,74.1,46.2,37,30.06,10.0,NNW,11.5,21.9,N/A,,Mostly Cloudy,330,2013-09-12 20:35:00
3:55 PM,72.9,47.5,40,30.06,10.0,NNW,12.7,-,N/A,,Scattered Clouds,330,2013-09-12 20:55:00
4:15 PM,69.8,46.9,44,30.07,10.0,NNW,12.7,19.6,N/A,,Scattered Clouds,330,2013-09-12 21:15:00
4:35 PM,71.4,46.8,41,30.07,10.0,NNW,9.2,20.7,N/A,,Clear,330,2013-09-12 21:35:00
4:55 PM,71.2,45.0,39,30.07,10.0,NNW,12.7,-,N/A,,Scattered Clouds,330,2013-09-12 21:55:00
5:15 PM,71.6,45.0,38,30.07,10.0,NNW,9.2,17.3,N/A,,Clear,340,2013-09-12 22:15:00
5:35 PM,70.7,45.5,40,30.07,10.0,NNW,9.2,-,N/A,,Clear,330,2013-09-12 22:35:00
5:55 PM,70.0,45.3,41,30.08,10.0,NNW,10.4,16.1,N/A,,Scattered Clouds,330,2013-09-12 22:55:00
6:15 PM,69.8,45.7,42,30.08,10.0,NW,8.1,-,N/A,,Scattered Clouds,320,2013-09-12 23:15:00
6:35 PM,68.9,45.1,42,30.08,10.0,NNW,6.9,-,N/A,,Clear,330,2013-09-12 23:35:00
6:55 PM,66.7,45.3,46,30.08,10.0,NNW,6.9,-,N/A,,Clear,330,2013-09-12 23:55:00
7:15 PM,65.5,45.3,48,30.09,10.0,NNW,6.9,-,N/A,,Clear,330,2013-09-13 00:15:00
7:35 PM,63.9,45.5,51,30.09,10.0,NNW,5.8,-,N/A,,Clear,330,2013-09-13 00:35:00
7:55 PM,61.9,46.2,56,30.10,10.0,NNW,3.5,-,N/A,,Clear,340,2013-09-13 00:55:00
8:15 PM,61.9,46.4,57,30.10,10.0,North,3.5,-,N/A,,Clear,350,2013-09-13 01:15:00
8:35 PM,62.1,45.9,55,30.11,10.0,NNW,4.6,-,N/A,,Clear,340,2013-09-13 01:35:00
8:55 PM,63.0,45.3,53,30.11,10.0,NNW,6.9,-,N/A,,Clear,340,2013-09-13 01:55:00
9:15 PM,62.4,45.5,54,30.12,10.0,NNW,6.9,-,N/A,,Clear,340,2013-09-13 02:15:00
9:35 PM,61.5,46.0,57,30.12,10.0,North,5.8,-,N/A,,Scattered Clouds,350,2013-09-13 02:35:00
9:55 PM,60.1,46.6,61,30.13,10.0,North,5.8,-,N/A,,Clear,350,2013-09-13 02:55:00
10:15 PM,60.3,46.4,60,30.13,10.0,North,8.1,-,N/A,,Clear,360,2013-09-13 03:15:00
10:35 PM,59.9,46.4,61,30.14,10.0,North,6.9,-,N/A,,Clear,10,2013-09-13 03:35:00
10:55 PM,59.7,46.0,61,30.14,10.0,North,9.2,-,N/A,,Clear,10,2013-09-13 03:55:00
11:15 PM,58.6,46.2,63,30.16,10.0,North,6.9,-,N/A,,Clear,360,2013-09-13 04:15:00
11:35 PM,56.8,45.9,67,30.17,10.0,NNE,6.9,-,N/A,,Clear,20,2013-09-13 04:35:00
11:55 PM,57.2,45.1,64,30.17,10.0,NNE,11.5,16.1,N/A,,Clear,20,2013-09-13 04:55:00